Volver al catálogo

CZ-4 DEB

ActivoPO
NORAD 35331·DEBRIS·🇨🇳 China

Lanzado Oct 14, 1999 desde Taiyuan Satellite Launch Center

Loading…

Próximos Pases (próximas 24 horas)

TLE

ActualizadoSource: Space-Track

Época: Sep 14, 2026, 13:57 UTC

1 35331U 99057SK  26257.58175035  .00006193  00000-0  79370-3 0  9999
2 35331  98.5549  20.3114 0066158  28.3008  33.6845 14.80135032671465

Sigue CZ-4 DEB en tiempo real con AllMySat

Download on the App Store